• In Belarus
  • List of Countries
  • For 7 days
  • Water Temperature
  • Satellite Maps
  • Weather Map
  • Weather Widgets
  • user-avatar
    Login

    Hourly Weather Munchenstein

    Today, 19 October, Thursday

    Time Temperature Precipitation Wind Pressure Humidity
    00:00 +12°C° 0 mm 1 mps 726 mmHg 67%
    01:00 +13°C° 0 mm 1 mps 726 mmHg 67%
    02:00 +12°C° 0 mm 1 mps 725 mmHg 66%
    03:00 +12°C° 0 mm 1 mps 725 mmHg 66%
    04:00 +12°C° 0 mm 1 mps 725 mmHg 66%
    05:00 +12°C° 0 mm 1 mps 725 mmHg 66%
    06:00 +12°C° 0 mm 1 mps 725 mmHg 65%
    07:00 +12°C° 0 mm 1 mps 725 mmHg 65%
    08:00 +14°C° 0 mm 1 mps 726 mmHg 60%
    09:00 +16°C° 0 mm 1 mps 726 mmHg 55%
    10:00 +19°C° 0 mm 1 mps 726 mmHg 50%
    11:00 +20°C° 0 mm 1 mps 726 mmHg 47%
    12:00 +22°C° 0 mm 1 mps 726 mmHg 44%
    13:00 +23°C° 0 mm 1 mps 726 mmHg 42%
    14:00 +23°C° 0 mm 1 mps 725 mmHg 46%
    15:00 +22°C° 0 mm 1 mps 725 mmHg 50%
    16:00 +22°C° 0 mm 1 mps 725 mmHg 55%
    17:00 +20°C° 0 mm 1 mps 725 mmHg 60%
    18:00 +18°C° 0 mm 1 mps 725 mmHg 65%
    19:00 +14°C° 0 mm 0 mps 725 mmHg 70%
    20:00 +14°C° 0 mm 1 mps 725 mmHg 71%
    21:00 +14°C° 0 mm 1 mps 725 mmHg 72%
    22:00 +13°C° 0 mm 1 mps 726 mmHg 73%
    23:00 +13°C° 0 mm 1 mps 726 mmHg 74%

    Tomorrow, 20 October, Friday

    Time Temperature Precipitation Wind Pressure Humidity
    00:00 +13°C° 0 mm 1 mps 726 mmHg 76%
    01:00 +13°C° 0 mm 1 mps 726 mmHg 77%
    02:00 +13°C° 0 mm 1 mps 726 mmHg 76%
    03:00 +13°C° 0 mm 1 mps 727 mmHg 75%
    04:00 +13°C° 0 mm 1 mps 727 mmHg 75%
    05:00 +13°C° 0 mm 1 mps 727 mmHg 74%
    06:00 +12°C° 0 mm 1 mps 727 mmHg 74%
    07:00 +12°C° 0 mm 1 mps 727 mmHg 74%
    08:00 +14°C° 0 mm 1 mps 728 mmHg 69%
    09:00 +16°C° 0 mm 1 mps 728 mmHg 64%
    10:00 +17°C° 0 mm 2 mps 729 mmHg 59%
    11:00 +18°C° 0 mm 2 mps 729 mmHg 56%
    12:00 +19°C° 0 mm 2 mps 729 mmHg 54%
    13:00 +21°C° 0 mm 2 mps 729 mmHg 51%
    14:00 +20°C° 0 mm 2 mps 729 mmHg 54%
    15:00 +20°C° 0 mm 2 mps 729 mmHg 58%
    16:00 +21°C° 0 mm 1 mps 728 mmHg 62%
    17:00 +19°C° 0 mm 1 mps 728 mmHg 68%
    18:00 +16°C° 0 mm 1 mps 729 mmHg 74%
    19:00 +14°C° 0 mm 1 mps 729 mmHg 80%
    20:00 +14°C° 0 mm 1 mps 729 mmHg 80%
    21:00 +14°C° 0 mm 1 mps 729 mmHg 80%
    22:00 +13°C° 0 mm 1 mps 729 mmHg 81%
    23:00 +13°C° 0 mm 1 mps 729 mmHg 79%

    Day after tomorrow, 21 October, Saturday

    Time Temperature Precipitation Wind Pressure Humidity
    00:00 +13°C° 0 mm 1 mps 728 mmHg 78%
    01:00 +13°C° 0 mm 1 mps 728 mmHg 76%
    02:00 +13°C° 0 mm 1 mps 728 mmHg 75%
    03:00 +13°C° 0 mm 1 mps 728 mmHg 74%
    04:00 +13°C° 0 mm 2 mps 728 mmHg 73%
    05:00 +13°C° 0 mm 2 mps 728 mmHg 73%
    06:00 +13°C° 0 mm 2 mps 728 mmHg 72%
    07:00 +12°C° 0 mm 2 mps 728 mmHg 72%
    08:00 +14°C° 0 mm 2 mps 728 mmHg 67%
    09:00 +16°C° 0 mm 2 mps 728 mmHg 62%
    10:00 +18°C° 0 mm 2 mps 728 mmHg 57%
    11:00 +19°C° 0 mm 3 mps 728 mmHg 56%
    12:00 +20°C° 0 mm 3 mps 728 mmHg 55%
    13:00 +21°C° 0 mm 3 mps 728 mmHg 54%
    14:00 +20°C° 0.2 mm 3 mps 728 mmHg 60%
    15:00 +19°C° 0.2 mm 3 mps 728 mmHg 66%
    16:00 +18°C° 0.2 mm 3 mps 728 mmHg 72%
    17:00 +16°C° 0.6 mm 3 mps 728 mmHg 78%
    18:00 +14°C° 0.6 mm 3 mps 729 mmHg 83%
    19:00 +12°C° 0.6 mm 3 mps 729 mmHg 88%
    20:00 +12°C° 1 mm 3 mps 729 mmHg 89%
    21:00 +11°C° 1 mm 3 mps 730 mmHg 89%
    22:00 +11°C° 1 mm 3 mps 730 mmHg 90%
    23:00 +11°C° 0.2 mm 3 mps 730 mmHg 90%

    22 October, Sunday

    Time Temperature Precipitation Wind Pressure Humidity
    00:00 +10°C° 0.2 mm 3 mps 730 mmHg 90%
    01:00 +10°C° 0.2 mm 3 mps 730 mmHg 89%
    02:00 +10°C° 0.1 mm 3 mps 730 mmHg 90%
    03:00 +9°C° 0.1 mm 3 mps 730 mmHg 90%
    04:00 +9°C° 0.1 mm 3 mps 729 mmHg 90%
    05:00 +9°C° 0.1 mm 3 mps 729 mmHg 90%
    06:00 +8°C° 0.1 mm 3 mps 729 mmHg 90%
    07:00 +8°C° 0.1 mm 3 mps 729 mmHg 90%
    08:00 +8°C° 0.1 mm 3 mps 730 mmHg 86%
    09:00 +8°C° 0.1 mm 4 mps 730 mmHg 83%
    10:00 +10°C° 0.1 mm 4 mps 730 mmHg 79%
    11:00 +10°C° 0.1 mm 4 mps 730 mmHg 75%
    12:00 +11°C° 0.1 mm 4 mps 730 mmHg 71%
    13:00 +11°C° 0.1 mm 4 mps 730 mmHg 67%
    14:00 +11°C° 0.2 mm 4 mps 730 mmHg 68%
    15:00 +11°C° 0.2 mm 4 mps 730 mmHg 69%
    16:00 +10°C° 0.2 mm 3 mps 730 mmHg 69%
    17:00 +9°C° 0.2 mm 3 mps 730 mmHg 75%
    18:00 +8°C° 0.2 mm 3 mps 731 mmHg 80%
    19:00 +8°C° 0.2 mm 2 mps 731 mmHg 86%
    20:00 +7°C° 0.3 mm 2 mps 731 mmHg 87%
    21:00 +7°C° 0.3 mm 2 mps 732 mmHg 88%
    22:00 +7°C° 0.3 mm 2 mps 732 mmHg 90%
    23:00 +7°C° 0.2 mm 2 mps 732 mmHg 90%

    23 October, Monday

    Time Temperature Precipitation Wind Pressure Humidity
    00:00 +7°C° 0.2 mm 2 mps 732 mmHg 90%
    01:00 +7°C° 0.2 mm 3 mps 732 mmHg 90%
    02:00 +7°C° 0.2 mm 2 mps 732 mmHg 90%
    03:00 +7°C° 0.2 mm 2 mps 732 mmHg 90%
    04:00 +7°C° 0.2 mm 2 mps 733 mmHg 91%
    05:00 +7°C° 0.1 mm 2 mps 733 mmHg 91%
    06:00 +7°C° 0.1 mm 2 mps 733 mmHg 92%
    07:00 +6°C° 0.1 mm 2 mps 733 mmHg 92%
    08:00 +7°C° 0.1 mm 2 mps 733 mmHg 89%
    09:00 +8°C° 0.1 mm 2 mps 734 mmHg 85%
    10:00 +9°C° 0.1 mm 2 mps 734 mmHg 82%
    11:00 +10°C° 0.1 mm 2 mps 734 mmHg 78%
    12:00 +12°C° 0.1 mm 2 mps 734 mmHg 73%
    13:00 +13°C° 0.1 mm 2 mps 734 mmHg 69%
    14:00 +13°C° 0.1 mm 2 mps 734 mmHg 70%
    15:00 +13°C° 0.1 mm 2 mps 734 mmHg 72%
    16:00 +12°C° 0.1 mm 1 mps 734 mmHg 73%
    17:00 +11°C° 0 mm 1 mps 734 mmHg 78%
    18:00 +10°C° 0 mm 1 mps 735 mmHg 84%
    19:00 +8°C° 0 mm 1 mps 735 mmHg 89%
    20:00 +8°C° 0 mm 1 mps 735 mmHg 89%
    21:00 +8°C° 0 mm 1 mps 735 mmHg 89%
    22:00 +7°C° 0 mm 1 mps 735 mmHg 90%
    23:00 +7°C° 0 mm 1 mps 735 mmHg 90%

    24 October, Tuesday

    Time Temperature Precipitation Wind Pressure Humidity
    00:00 +7°C° 0 mm 1 mps 735 mmHg 90%
    01:00 +7°C° 0 mm 1 mps 735 mmHg 90%
    02:00 +7°C° 0 mm 1 mps 735 mmHg 89%
    03:00 +6°C° 0 mm 1 mps 735 mmHg 89%
    04:00 +6°C° 0 mm 1 mps 735 mmHg 89%
    05:00 +6°C° 0 mm 1 mps 735 mmHg 88%
    06:00 +6°C° 0 mm 1 mps 735 mmHg 87%
    07:00 +6°C° 0 mm 1 mps 735 mmHg 87%
    08:00 +8°C° 0 mm 1 mps 735 mmHg 80%
    09:00 +10°C° 0 mm 1 mps 735 mmHg 74%
    10:00 +12°C° 0 mm 1 mps 735 mmHg 68%
    11:00 +13°C° 0 mm 1 mps 734 mmHg 63%
    12:00 +15°C° 0 mm 2 mps 734 mmHg 59%
    13:00 +16°C° 0 mm 2 mps 734 mmHg 55%
    14:00 +16°C° 0 mm 2 mps 734 mmHg 57%
    15:00 +16°C° 0 mm 2 mps 734 mmHg 60%
    16:00 +16°C° 0 mm 2 mps 733 mmHg 63%
    17:00 +14°C° 0 mm 1 mps 734 mmHg 69%
    18:00 +12°C° 0 mm 1 mps 734 mmHg 76%
    19:00 +10°C° 0 mm 1 mps 734 mmHg 82%
    20:00 +10°C° 0 mm 1 mps 734 mmHg 83%
    21:00 +9°C° 0 mm 1 mps 734 mmHg 84%
    22:00 +9°C° 0 mm 1 mps 734 mmHg 85%
    23:00 +9°C° 0 mm 1 mps 734 mmHg 86%
    Show more